Change the Weather History Date:

Friday, April 6, 2012

  Actual Average (KCLT) Record (KCLT)
Temperature  
Mean Temperature 54 °F 57 °F  
Max Temperature 63 °F 70 °F 90 °F (1929)
Min Temperature 44 °F 44 °F 28 °F (1944)
Degree Days  
Heating Degree Days 12 9  
Month to date heating degree days 56  
Since 1 July heating degree days 3188  
Cooling Degree Days 0 1  
Month to date cooling degree days 5  
Year to date cooling degree days 10  
Growing Degree Days 4 (Base 50)    
Moisture  
Dew Point 43 °F    
Average Humidity 80    
Maximum Humidity 100    
Minimum Humidity 34    
Precipitation  
Precipitation 0.27 in 0.10 in 3.84 in (1936)
Month to date precipitation 0.64  
Year to date precipitation 11.38  
Snow  
Snow 0.00 in 0.00 in 0.00 in ()
Month to date snowfall 0.1  
Since 1 July snowfall 4.4  
Snow Depth -    
Sea Level Pressure  
Sea Level Pressure 29.91 in    
Wind  
Wind Speed 10 mph (NE)    
Max Wind Speed 17 mph    
Max Gust Speed 24 mph    
Visibility 10 miles    
Events Rain    
T = Trace of Precipitation, MM = Missing Value Source: NWS Daily Summary

Daily Weather History Graph

Daily Weather History Graph

Search for Another Location

Airport or City:

Trip Planner

Search our weather history database for the weather conditions in past years. The results will help you decide how hot, cold, wet, or windy it might be!

Date:

Astronomy

Apr. 06, 2012 Rise Set
Actual Time 7:01 AM EDT 7:48 PM EDT
Civil Twilight 6:36 AM EDT 8:13 PM EDT
Nautical Twilight 6:05 AM EDT 8:44 PM EDT
Astronomical Twilight 5:34 AM EDT 9:15 PM EDT
Moon 8:03 PM EDT (4/6) 6:34 AM EDT (4/6)
Length of Visible Light 13h 37m
Length of Day
12h 46m
Full, 100% of the Moon is Illuminated
Apr 6
Full
Apr 6
Full
Apr 13
Last Quarter
Apr 21
New
Apr 29
First Quarter

Hourly Weather History & Observations

Time (EDT) Temp. Windchill Dew Point Humidity Pressure Visibility Wind Dir Wind Speed Gust Speed Precip Events Conditions
12:05 AM 51.8 °F - 50.0 °F 94% 29.79 in 10.0 mi ENE 8.1 mph - N/A   Overcast
12:12 AM 51.8 °F - 48.2 °F 88% 29.79 in 10.0 mi ENE 8.1 mph - N/A   Overcast
12:53 AM 51.1 °F - 50.0 °F 96% 29.82 in 10.0 mi ENE 5.8 mph - N/A   Overcast
1:09 AM 51.8 °F - 50.0 °F 94% 29.80 in 10.0 mi ENE 6.9 mph - N/A   Overcast
1:53 AM 50.0 °F - 46.9 °F 89% 29.84 in 10.0 mi NE 12.7 mph - N/A   Overcast
2:41 AM 50.0 °F - 46.4 °F 87% 29.79 in 10.0 mi NE 12.7 mph - N/A   Overcast
2:53 AM 48.9 °F - 46.9 °F 93% 29.82 in 10.0 mi NE 10.4 mph 19.6 mph N/A   Overcast
3:00 AM 48.2 °F - 46.4 °F 93% 29.79 in 10.0 mi NNE 12.7 mph 19.6 mph N/A   Overcast
3:43 AM 48.2 °F - 46.4 °F 93% 29.80 in 10.0 mi NE 10.4 mph - 0.00 in Rain Light Rain
3:53 AM 48.9 °F - 46.9 °F 93% 29.83 in 10.0 mi NNE 10.4 mph - 0.00 in Rain Light Rain
4:46 AM 46.4 °F 41.1 °F 46.4 °F 100% 29.81 in 5.0 mi NNE 11.5 mph - 0.10 in Rain Rain
4:53 AM 46.9 °F - 46.0 °F 97% 29.85 in 7.0 mi NNE 11.5 mph - 0.11 in Rain Rain
5:04 AM 46.4 °F 41.1 °F 44.6 °F 93% 29.82 in 8.0 mi NNE 11.5 mph - 0.02 in Rain Rain
5:22 AM 46.4 °F 41.1 °F 44.6 °F 93% 29.82 in 7.0 mi NNE 11.5 mph - 0.06 in Rain Rain
5:44 AM 46.4 °F 41.9 °F 44.6 °F 93% 29.84 in 10.0 mi North 9.2 mph - 0.08 in Rain Light Rain
5:53 AM 46.9 °F - 44.1 °F 90% 29.88 in 10.0 mi NNE 5.8 mph - 0.08 in Rain Light Rain
6:31 AM 46.4 °F 39.5 °F 44.6 °F 93% 29.84 in 8.0 mi NNE 17.3 mph - 0.02 in Rain Rain
6:43 AM 46.4 °F 40.4 °F 44.6 °F 93% 29.85 in 7.0 mi NNE 13.8 mph - 0.04 in Rain Rain
6:53 AM 46.0 °F 40.6 °F 44.1 °F 93% 29.89 in 9.0 mi NNE 11.5 mph 19.6 mph 0.05 in Rain Light Rain
7:01 AM 44.6 °F 37.4 °F 42.8 °F 93% 29.86 in 10.0 mi NNE 16.1 mph 20.7 mph 0.01 in Rain Light Rain
7:09 AM 44.6 °F 37.4 °F 42.8 °F 93% 29.87 in 10.0 mi NNE 16.1 mph 21.9 mph 0.01 in Rain Light Rain
7:53 AM 44.1 °F 38.1 °F 42.1 °F 93% 29.93 in 10.0 mi NE 11.5 mph - 0.03 in Rain Light Rain
8:53 AM 45.0 °F 38.9 °F 42.1 °F 90% 29.96 in 10.0 mi NNE 12.7 mph - 0.00 in Rain Light Rain
9:53 AM 46.0 °F 41.0 °F 42.1 °F 86% 29.97 in 10.0 mi NNE 10.4 mph - 0.00 in   Overcast
10:53 AM 50.0 °F - 42.1 °F 74% 29.99 in 10.0 mi NNE 11.5 mph - N/A   Overcast
11:53 AM 53.1 °F - 43.0 °F 69% 30.00 in 10.0 mi NNE 9.2 mph - N/A   Overcast
12:53 PM 55.9 °F - 41.0 °F 57% 30.00 in 10.0 mi NE 9.2 mph 24.2 mph N/A   Partly Cloudy
1:53 PM 60.1 °F - 41.0 °F 49% 30.00 in 10.0 mi North 11.5 mph - N/A   Partly Cloudy
2:53 PM 61.0 °F - 39.0 °F 44% 29.99 in 10.0 mi NNE 10.4 mph - N/A   Mostly Cloudy
3:53 PM 62.1 °F - 37.0 °F 39% 29.99 in 10.0 mi NE 13.8 mph 21.9 mph N/A   Partly Cloudy
4:53 PM 63.0 °F - 34.0 °F 34% 29.99 in 10.0 mi NNE 15.0 mph 21.9 mph N/A   Clear
5:53 PM 63.0 °F - 35.1 °F 35% 30.00 in 10.0 mi NE 12.7 mph - N/A   Clear
6:53 PM 61.0 °F - 36.0 °F 39% 30.01 in 10.0 mi NE 8.1 mph - N/A   Clear
7:53 PM 55.0 °F - 37.9 °F 53% 30.03 in 10.0 mi Calm Calm - N/A   Clear
8:53 PM 50.0 °F - 43.0 °F 77% 30.05 in 10.0 mi Calm Calm - N/A   Clear
9:53 PM 48.9 °F - 42.1 °F 77% 30.09 in 10.0 mi Calm Calm - N/A   Clear
10:53 PM 48.0 °F - 42.1 °F 80% 30.12 in 10.0 mi Calm Calm - N/A   Clear
11:53 PM 46.0 °F - 43.0 °F 89% 30.13 in 10.0 mi Calm Calm - N/A   Clear